Miscellaneous Local Product
Issued by NWS Hastings, NE

Home | Current Version | Previous Version | Graphics & Text | Print | Product List | Glossary On
Versions: 1 2 3 4 5 6 7 8 9 10 11 12 13 14 15 16 17 18 19 20 21 22 23 24 25 26 27 28 29 30 31 32 33 34 35 36 37 38 39 40 41 42 43 44 45 46 47 48 49 50
000
AXUS43 KGID 011302
MISGRI

GID CWA HOURLY WEATHER ROUNDUP
NATIONAL WEATHER SERVICE HASTINGS NE
800 AM CDT MON JUN 01 2015

NOTE: "FAIR" INDICATES FEW OR NO CLOUDS BELOW 12,000 FEET WITH NO
SIGNIFICANT WEATHER AND/OR OBSTRUCTIONS TO VISIBILITY.

...SOUTH CENTRAL NEBRASKA...

CITY           SKY/WX    TMP DP  RH WIND       PRES   REMARKS
GRAND ISLAND   PTSUNNY   60  53  77 S12       30.13S
HASTINGS       PTSUNNY   58  53  84 SE13      30.11F
KEARNEY        CLOUDY    57  54  88 SE13      30.11R
ORD            MOSUNNY   58  52  80 SE10      30.09S
YORK           CLOUDY    57  54  88 S7        30.14F
AURORA         MOSUNNY   59  54  83 SE9       30.12F
LEXINGTON      SUNNY     59  56  89 SE9       30.08S
HOLDREGE       CLOUDY    57  55  93 SE14      30.08F
HEBRON         CLOUDY    58  52  81 S7        30.14F

...NEBRASKA PANHANDLE...

CITY           SKY/WX    TMP DP  RH WIND       PRES   REMARKS
CHADRON        SUNNY     57  54  89 N3        29.99S
ALLIANCE       FOG       56  55  97 SE10      30.03S VSB 1/4
SCOTTSBLUFF    FOG       57  57 100 SE7       30.03R VSB<1/4
SIDNEY         SUNNY     57  55  93 CALM      30.07R

...WESTERN AND NORTH CENTRAL NEBRASKA...

CITY           SKY/WX    TMP DP  RH WIND       PRES   REMARKS
VALENTINE      MOSUNNY   60  54  80 S8        30.04S
AINSWORTH      MOSUNNY   58  54  85 S14       30.05S
ONEILL         MOSUNNY   57  50  76 S15G21    30.10R
BROKEN BOW     CLOUDY    56  54  93 SE9       30.09R
IMPERIAL       CLOUDY    54  53  97 SE12      30.05S FOG
NORTH PLATTE   CLOUDY    58  54  86 S9        30.07S
MCCOOK         CLOUDY    58  55  90 SE10      30.06S

...EASTERN NEBRASKA...

CITY           SKY/WX    TMP DP  RH WIND       PRES   REMARKS
NORFOLK        MOSUNNY   59  48  67 SE8       30.14R
SO SIOUX CITY  MOSUNNY   55  48  77 SE7       30.17S
TEKAMAH        CLOUDY    60  53  77 SE12      30.17R
COLUMBUS       PTSUNNY   57  46  67 SE8       30.15S
ALBION         MOSUNNY   56  48  75 SE8       30.13R
OMAHA EPPLEY   PTSUNNY   60  53  77 SE9       30.17S
OFFUTT AFB     PTSUNNY   60  55  82 SE1       30.16S
MILLARD        CLOUDY    59  54  83 SE3       30.17R
LINCOLN        CLOUDY    59  52  77 SE7       30.16S
NEBRASKA CITY  FAIR      58  55  89 SE5       30.17R
BEATRICE       CLOUDY    57  54  88 S6        30.16S
FALLS CITY     MOSUNNY   59  55  87 SE3       30.17R

...NORTHERN KANSAS...

CITY           SKY/WX    TMP DP  RH WIND       PRES   REMARKS
GOODLAND       SUNNY     62  55  77 NE5       30.05R
HILL CITY      MOSUNNY   60  56  86 SE9       30.08S
NORTON         PTSUNNY   57  52  82 SE13G18   30.07S
PHILLIPSBURG   PTSUNNY   61  61 100 E7        30.10R
SMITH CENTER   CLOUDY    57  55  94 SE9       30.11S
HAYS           CLOUDY    61  54  77 SE13      30.09F
RUSSELL        PTSUNNY   62  58  86 S18       30.09S
CONCORDIA      CLOUDY    59  53  80 SE12      30.13R
SALINA         CLOUDY    60  56  86 SE7       30.14R
TOPEKA         PTSUNNY   61  56  83 E7        30.16R



USA.gov is the U.S. government's official web portal to all federal, state and local government web resources and services.